Regional Weather Roundup
Issued by NWS

Home | Current Version | Previous Version | Text Only | Print | Product List | Glossary Off
Versions: 1 2 3 4 5 6 7 8 9 10 11 12 13 14 15 16 17 18 19 20 21 22 23 24 25 26 27 28 29 30 31 32 33 34 35 36 37 38 39 40 41 42 43 44 45 46 47 48 49 50

000
ASUS43 KMKX 272211
RWRWI

WISCONSIN REGIONAL WEATHER ROUNDUP
NATIONAL WEATHER SERVICE MILWAUKEE/SULLIVAN WI
500 PM CDT WED AUG 27 2014

NOTE: "FAIR" INDICATES FEW OR NO CLOUDS BELOW 12,000 FEET WITH NO
SIGNIFICANT WEATHER AND/OR OBSTRUCTIONS TO VISIBILITY.

WIZ001-002-006>008-014>016-023>028-272300-
NORTHWEST WISCONSIN

CITY           SKY/WX    TMP DP  RH WIND       PRES   REMARKS
SUPERIOR ARPT  MOSUNNY   72  52  49 SW3       30.15F
ASHLAND        MOSUNNY   69  50  50 VRB3      30.18F
HAYWARD        PTSUNNY   71  48  43 VRB3      30.18F
SIREN          SUNNY     71  52  51 N3        30.17F
RICE LAKE      SUNNY     71  53  52 N7        30.18F
LADYSMITH      MOSUNNY   71  51  49 N7        30.19S
EAU CLAIRE     MOSUNNY   74  55  51 NE6       30.15F
MENOMONIE      PTCLDY    73  54  50 CALM      30.16F
NEW RICHMOND   SUNNY     74  55  51 CALM      30.16F
OSCEOLA        SUNNY     73  56  55 CALM      30.18F
$$

WIZ003>005-009-010-017-018-272300-
NORTH CENTRAL WISCONSIN

CITY           SKY/WX    TMP DP  RH WIND       PRES   REMARKS
WOODRUFF       SUNNY     69  46  43 W5        30.18F
RHINELANDER    SUNNY     70  49  47 NW7       30.18F
EAGLE RIVER    SUNNY     68  44  41 W6        30.17S
LAND O LAKES   SUNNY     69  44  40 W7        30.18S
PHILLIPS       SUNNY     69  49  49 NW5       30.17F
TOMAHAWK       SUNNY     68  49  49 NW5       30.18S
MEDFORD        SUNNY     69  52  54 NW7       30.17S
MERRILL        SUNNY     71  52  50 N6        30.16F
$$

WIZ029-030-035-036-043>047-272300-
CENTRAL WISCONSIN

CITY           SKY/WX    TMP DP  RH WIND       PRES   REMARKS
WAUSAU         SUNNY     73  51  46 N7        30.14F
MOSINEE        MOSUNNY   72  54  53 NW7       30.17F
MARSHFIELD     MOSUNNY   72  54  53 W5        30.16F
STEVENS POINT  MOSUNNY   71  55  58 NW5       30.16F
WAUPACA        MOSUNNY   76  56  49 CALM      30.15F
WAUTOMA        MOSUNNY   76  58  53 NW5       30.14F
WISC RAPIDS    MOSUNNY   75  57  53 NW7       30.16F
CAMP DOUGLAS   MOSUNNY   76  60  58 NW5       30.15F
$$

WIZ011>013-019>022-031-037>040-048>050-272300-
NORTHEAST WISCONSIN

CITY           SKY/WX    TMP DP  RH WIND       PRES   REMARKS
ANTIGO         SUNNY     69  51  52 NW7       30.17F
STURGEON BAY   SUNNY     70  54  56 CALM      30.17S
GREEN BAY      PTSUNNY   74  58  57 NW3       30.15F
MANITOWOC      CLOUDY    66  57  72 SE6       30.16F
APPLETON       PTSUNNY   72  54  53 VRB6      30.16F
CLINTONVILLE   MOSUNNY   72  54  53 W5        30.14F
OSHKOSH        PTSUNNY   73  57  57 SW3       30.15F
$$

WIZ032>034-041-042-053>061-272300-
SOUTHWEST WISCONSIN

CITY           SKY/WX    TMP DP  RH WIND       PRES   REMARKS
LA CROSSE      PTSUNNY   76  57  51 W3        30.13F
SPARTA         PTSUNNY   76  55  47 N5        30.15F
VIROQUA        FAIR      72  57  58 CALM      30.17S
BOSCOBEL       CLOUDY    77  57  50 CALM      30.14F
PRAIRIE DU CHI CLOUDY    74  57  55 CALM      30.13F
PLATTEVILLE    FAIR      73  61  64 CALM      30.15F
$$

WIZ056-057-062-063-064-067-068-272300-
SOUTH CENTRAL WISCONSIN

CITY           SKY/WX    TMP DP  RH WIND       PRES   REMARKS
BARABOO/DELLS  PTSUNNY   74  55  50 W3        30.14F
LONE ROCK      CLOUDY    79  59  50 N5        30.14F HX  80
WATERTOWN      PTSUNNY   74  60  61 CALM      30.14F
MADISON        PTSUNNY   77  57  50 N3        30.14F
MIDDLETON      FAIR      75  57  54 NE3       30.15F
MONROE         CLOUDY    73  59  60 NE5       30.14F
JANESVILLE     SUNNY     77  55  47 CALM      30.13F
$$

WIZ051-052-058>065-066-070>072-272300-
SOUTHEAST WISCONSIN

CITY           SKY/WX    TMP DP  RH WIND       PRES   REMARKS
MILWAUKEE      PTSUNNY   70  61  73 E8        30.15F
WAUKESHA       PTSUNNY   72  61  68 E5        30.16F
MILWAUKEE/TIMM SUNNY     72  59  64 E6        30.16F
RACINE         PTSUNNY   71  61  70 NE9       30.17S
BURLINGTON     PTSUNNY   73  63  71 E3        30.14S
KENOSHA        PTSUNNY   71  62  73 E10       30.15F
FOND DU LAC    CLOUDY    76  57  51 CALM      30.15F
SHEBOYGAN      CLOUDY    70  56  61 E7        30.16S
WEST BEND      PTSUNNY   68  59  73 E7        30.15F
JUNEAU         PTSUNNY   73  58  59 NE3       30.16F
$$

LSZ147-162-272300-
LAKE SUPERIOR

STATION/POSITION TIME  TEMP    WIND        PRES    WAVE
                       AIR SEA DIR/SP/G            HT/PER
                 (UTC) (F)     (DEG/KT/KT) (MB)    (FT/S)
W MID LAKE BUOY  2150   58 56  220/  4/  4 1021.7F   1
DEVILS ISLAND    2200   63     240/  1/  3 1021.7F
PORT WING        2140   69     270/  4/  7 1021.3F
$$

LMZ867-665-643>646-272300-
LAKE MICHIGAN

STATION/POSITION TIME  TEMP    WIND        PRES    WAVE
                       AIR SEA DIR/SP/G            HT/PER
                 (UTC) (F)     (DEG/KT/KT) (MB)    (FT/S)
N MID LAKE BUOY  2150   64 67  230/  2/  4 1021.2F   0
NORTHPORT PIER   2100   67     360/  5/  7 1021.0F
KEWAUNEE LAKESHO 2100   67     130/  4/  6 1020.8F
SHEBOYGAN LAKESH 2200   66 68  110/  6/  7 1021.5F
ATWATER BUOY     2100   68      70/  6/  8 1022.3F
MILWAUKEE LAKESH 2100   67      70/  6/  7   N/A
S MID LAKE BUOY  2150   68 70  360/ 10/ 10 1021.1F   1
KENOSHA   LAKESH 2200   69      60/  7/  8 1020.3F
$$

TC  - TEMPERATURE IN CELSIUS
VSB - VISIBILITY IN STATUTE MILES
WCI - WIND CHILL INDEX
HX  - HEAT INDEX




USA.gov is the U.S. government's official web portal to all federal, state and local government web resources and services.